• In Russia
  • List of Countries
  • For 7 days
  • Water Temperature
  • Weather Map
  • Weather Widgets
  • user-avatar
    Login

    Hourly Weather Quebec

    Today, 3 June, Wednesday

    Time Temperature Precipitation Wind Pressure Humidity
    00:00 -1°C° 0 mm 3 mps 692 mmHg 78%
    01:00 -2°C° 0 mm 3 mps 692 mmHg 87%
    02:00 -2°C° 0 mm 3 mps 692 mmHg 89%
    03:00 -2°C° 0 mm 3 mps 691 mmHg 91%
    04:00 -4°C° 0 mm 3 mps 691 mmHg 93%
    05:00 -3°C° 0 mm 4 mps 690 mmHg 87%
    06:00 -2°C° 0 mm 5 mps 690 mmHg 81%
    07:00 -1°C° 0 mm 5 mps 689 mmHg 75%
    08:00 -1°C° 0 mm 6 mps 689 mmHg 73%
    09:00 +1°C° 0 mm 6 mps 688 mmHg 70%
    10:00 +2°C° 0 mm 6 mps 688 mmHg 67%
    11:00 +3°C° 0 mm 6 mps 687 mmHg 66%
    12:00 +3°C° 0 mm 6 mps 687 mmHg 64%
    13:00 +4°C° 0 mm 6 mps 686 mmHg 63%
    14:00 +3°C° 0 mm 6 mps 686 mmHg 69%
    15:00 +3°C° 0 mm 6 mps 685 mmHg 75%
    16:00 +2°C° 0 mm 6 mps 685 mmHg 81%
    17:00 +1°C° 0.4 mm 6 mps 685 mmHg 86%
    18:00 -1°C° 0.4 mm 6 mps 684 mmHg 91%
    19:00 -1°C° 0.4 mm 5 mps 684 mmHg 96%
    20:00 -3°C° 1 mm 6 mps 683 mmHg 96%
    21:00 -3°C° 1 mm 6 mps 683 mmHg 97%
    22:00 -4°C° 1 mm 6 mps 682 mmHg 97%
    23:00 -3°C° 0.5 mm 6 mps 682 mmHg 97%

    Tomorrow, 4 June, Thursday

    Time Temperature Precipitation Wind Pressure Humidity
    00:00 -3°C° 0.5 mm 6 mps 682 mmHg 97%
    01:00 -3°C° 0.5 mm 6 mps 681 mmHg 97%
    02:00 -2°C° 0.4 mm 6 mps 681 mmHg 97%
    03:00 -2°C° 0.4 mm 6 mps 682 mmHg 97%
    04:00 -1°C° 0.4 mm 7 mps 682 mmHg 97%
    05:00 -1°C° 1 mm 7 mps 682 mmHg 97%
    06:00 -1°C° 1 mm 7 mps 682 mmHg 97%
    07:00 -1°C° 1 mm 7 mps 683 mmHg 97%
    08:00 -1°C° 0.5 mm 7 mps 683 mmHg 97%
    09:00 -1°C° 0.5 mm 7 mps 684 mmHg 96%
    10:00 0°C° 0.5 mm 7 mps 684 mmHg 96%
    11:00 0°C° 0.3 mm 7 mps 685 mmHg 96%
    12:00 0°C° 0.3 mm 7 mps 685 mmHg 96%
    13:00 0°C° 0.3 mm 7 mps 686 mmHg 95%
    14:00 0°C° 0.3 mm 7 mps 686 mmHg 96%
    15:00 0°C° 0.3 mm 7 mps 687 mmHg 96%
    16:00 0°C° 0.3 mm 7 mps 687 mmHg 96%
    17:00 -1°C° 0.9 mm 7 mps 688 mmHg 96%
    18:00 -1°C° 0.9 mm 6 mps 688 mmHg 96%
    19:00 -2°C° 0.9 mm 6 mps 688 mmHg 97%
    20:00 -2°C° 0.7 mm 6 mps 688 mmHg 97%
    21:00 -2°C° 0.7 mm 6 mps 688 mmHg 97%
    22:00 -2°C° 0.7 mm 6 mps 688 mmHg 97%
    23:00 -2°C° 0.4 mm 6 mps 689 mmHg 97%

    Day after tomorrow, 5 June, Friday

    Time Temperature Precipitation Wind Pressure Humidity
    00:00 -1°C° 0.4 mm 5 mps 689 mmHg 97%
    01:00 -1°C° 0.4 mm 5 mps 689 mmHg 97%
    02:00 -1°C° 0.1 mm 5 mps 689 mmHg 97%
    03:00 -1°C° 0.1 mm 4 mps 689 mmHg 97%
    04:00 0°C° 0.1 mm 3 mps 690 mmHg 96%
    05:00 0°C° 0 mm 3 mps 690 mmHg 96%
    06:00 0°C° 0 mm 3 mps 691 mmHg 96%
    07:00 +1°C° 0 mm 3 mps 691 mmHg 96%
    08:00 +1°C° 0 mm 3 mps 692 mmHg 94%
    09:00 +3°C° 0 mm 2 mps 692 mmHg 93%
    10:00 +3°C° 0 mm 2 mps 692 mmHg 91%
    11:00 +4°C° 0 mm 2 mps 692 mmHg 89%
    12:00 +5°C° 0 mm 2 mps 692 mmHg 86%
    13:00 +5°C° 0 mm 2 mps 692 mmHg 84%
    14:00 +6°C° 0 mm 2 mps 692 mmHg 80%
    15:00 +8°C° 0 mm 1 mps 692 mmHg 77%
    16:00 +9°C° 0 mm 1 mps 692 mmHg 73%
    17:00 +9°C° 0 mm 1 mps 691 mmHg 76%
    18:00 +8°C° 0 mm 1 mps 691 mmHg 78%
    19:00 +8°C° 0 mm 1 mps 691 mmHg 80%
    20:00 +6°C° 0 mm 2 mps 690 mmHg 84%
    21:00 +4°C° 0 mm 2 mps 690 mmHg 87%
    22:00 +3°C° 0 mm 2 mps 689 mmHg 91%
    23:00 +3°C° 0.1 mm 2 mps 689 mmHg 91%

    6 June, Saturday

    Time Temperature Precipitation Wind Pressure Humidity
    00:00 +4°C° 0.1 mm 2 mps 689 mmHg 90%
    01:00 +4°C° 0.1 mm 2 mps 688 mmHg 90%
    02:00 +4°C° 0.2 mm 2 mps 688 mmHg 91%
    03:00 +5°C° 0.2 mm 1 mps 688 mmHg 92%
    04:00 +5°C° 0.2 mm 1 mps 688 mmHg 93%
    05:00 +5°C° 0.1 mm 1 mps 689 mmHg 91%
    06:00 +6°C° 0.1 mm 1 mps 689 mmHg 90%
    07:00 +5°C° 0.1 mm 0 mps 690 mmHg 88%
    08:00 +7°C° 0.1 mm 1 mps 690 mmHg 82%
    09:00 +8°C° 0.1 mm 2 mps 690 mmHg 76%
    10:00 +9°C° 0.1 mm 3 mps 691 mmHg 70%
    11:00 +9°C° 0.1 mm 3 mps 691 mmHg 67%
    12:00 +8°C° 0.1 mm 4 mps 691 mmHg 64%
    13:00 +10°C° 0.1 mm 4 mps 691 mmHg 61%
    14:00 +10°C° 0.1 mm 4 mps 691 mmHg 63%
    15:00 +8°C° 0.1 mm 4 mps 691 mmHg 65%
    16:00 +8°C° 0.1 mm 4 mps 692 mmHg 66%
    17:00 +7°C° 0.2 mm 4 mps 692 mmHg 70%
    18:00 +7°C° 0.2 mm 4 mps 692 mmHg 73%
    19:00 +7°C° 0.2 mm 3 mps 693 mmHg 77%
    20:00 +5°C° 0 mm 3 mps 693 mmHg 81%
    21:00 +4°C° 0 mm 3 mps 693 mmHg 86%
    22:00 +2°C° 0 mm 3 mps 693 mmHg 90%
    23:00 +3°C° 0 mm 2 mps 693 mmHg 90%

    7 June, Sunday

    Time Temperature Precipitation Wind Pressure Humidity
    00:00 +2°C° 0 mm 2 mps 694 mmHg 91%
    01:00 +2°C° 0 mm 2 mps 694 mmHg 91%
    02:00 +1°C° 0 mm 2 mps 694 mmHg 92%
    03:00 +1°C° 0 mm 2 mps 694 mmHg 93%
    04:00 -1°C° 0 mm 2 mps 694 mmHg 93%
    05:00 +1°C° 0 mm 3 mps 695 mmHg 88%
    06:00 +1°C° 0 mm 4 mps 695 mmHg 82%
    07:00 +3°C° 0 mm 4 mps 696 mmHg 77%
    08:00 +3°C° 0.1 mm 5 mps 696 mmHg 74%
    09:00 +3°C° 0.1 mm 5 mps 697 mmHg 71%
    10:00 +4°C° 0.2 mm 6 mps 697 mmHg 68%
    11:00 +4°C° 0.1 mm 6 mps 697 mmHg 67%
    12:00 +4°C° 0.1 mm 6 mps 697 mmHg 67%
    13:00 +4°C° 0.1 mm 7 mps 697 mmHg 66%
    14:00 +4°C° 0.1 mm 7 mps 697 mmHg 63%
    15:00 +4°C° 0.1 mm 7 mps 697 mmHg 59%
    16:00 +4°C° 0.1 mm 6 mps 698 mmHg 56%
    17:00 +4°C° 0 mm 6 mps 698 mmHg 55%
    18:00 +5°C° 0 mm 5 mps 698 mmHg 53%
    19:00 +5°C° 0 mm 4 mps 698 mmHg 52%
    20:00 +4°C° 0 mm 4 mps 698 mmHg 60%
    21:00 +1°C° 0 mm 4 mps 698 mmHg 68%
    22:00 +1°C° 0 mm 3 mps 698 mmHg 76%
    23:00 0°C° 0 mm 3 mps 698 mmHg 80%

    8 June, Monday

    Time Temperature Precipitation Wind Pressure Humidity
    00:00 -1°C° 0 mm 2 mps 698 mmHg 85%
    01:00 -2°C° 0 mm 2 mps 698 mmHg 90%
    02:00 -2°C° 0 mm 2 mps 699 mmHg 89%
    03:00 -3°C° 0 mm 2 mps 699 mmHg 89%
    04:00 -3°C° 0 mm 2 mps 700 mmHg 88%
    05:00 -1°C° 0 mm 3 mps 700 mmHg 75%
    06:00 0°C° 0 mm 4 mps 701 mmHg 63%
    07:00 +2°C° 0 mm 5 mps 701 mmHg 50%
    08:00 +3°C° 0 mm 5 mps 701 mmHg 48%
    09:00 +5°C° 0 mm 6 mps 701 mmHg 47%
    10:00 +7°C° 0 mm 6 mps 701 mmHg 45%
    11:00 +8°C° 0 mm 6 mps 701 mmHg 44%
    12:00 +9°C° 0 mm 6 mps 700 mmHg 43%
    13:00 +10°C° 0 mm 6 mps 700 mmHg 41%
    14:00 +10°C° 0 mm 6 mps 700 mmHg 42%
    15:00 +10°C° 0 mm 6 mps 700 mmHg 42%
    16:00 +10°C° 0 mm 6 mps 700 mmHg 43%
    17:00 +9°C° 0 mm 5 mps 700 mmHg 46%
    18:00 +8°C° 0 mm 4 mps 700 mmHg 49%
    19:00 +8°C° 0 mm 3 mps 699 mmHg 53%
    20:00 +7°C° 0 mm 2 mps 699 mmHg 59%
    21:00 +5°C° 0 mm 2 mps 699 mmHg 65%
    22:00 +4°C° 0 mm 1 mps 699 mmHg 71%
    23:00 +4°C° 0 mm 1 mps 699 mmHg 74%
    Show more